{"data":{"norad_id":62647,"intl_designator":"2025-009AQ","name":"FLOCK 4G-23","alt_names":[],"object_type":"PAYLOAD","status":"ACTIVE","operator":null,"country":"US","launch_date":"2025-01-14","launch_site_code":"AFWTR","launch_vehicle":null,"mission":null,"orbit_class":"UNKNOWN","rcs_meters":null,"size_class":null,"mass_kg":null,"dimensions":null,"purposes":["earth_obs"],"wikipedia_slug":null,"has_3d_model":false,"image_url":null,"decayed_at":null,"tle_current":{"epoch":"2026-05-25T04:15:42.760800Z","epoch_age_seconds":56942,"freshness":"FRESH","line1":"1 62647U 25009AQ  26145.17757825  .00039845  00000+0  13436-2 0  9998","line2":"2 62647  97.3935 226.8971 0001298 107.0040 253.1343 15.30607212 75404","mean_motion":15.30607212,"eccentricity":0.0001298,"inclination_deg":97.3935,"raan_deg":226.8971,"arg_perigee_deg":107.004,"mean_anomaly_deg":253.1343,"bstar":0.0013436,"rev_number":7540,"period_min":94.08030935111,"perigee_km":473.11007004363,"apogee_km":474.88888467316,"semimajor_km":6852.1364773584,"source":"CELESTRAK","updated_at":"2026-05-25T13:38:13.339732Z"}}}